Location: Unspecified
(0.0000°N, 0.0000°E)
Time: 15:52:43
(UTC+00:00)

deb Explorer IX - Visible Passes

Search period start: 21 August 2017 00:00
Search period end: 31 August 2017 00:00
Orbit: 538 x 1126 km, 38.8° (Epoch: 20 August)

Date Brightness Start Highest point End Pass type
(mag) Time Alt. Az. Time Alt. Az. Time Alt. Az.
21 Aug ? 05:15:50 10° NW 05:20:16 88° NE 05:25:30 10° SE visible
22 Aug ? 04:56:56 15° NW 05:00:29 85° SW 05:05:31 10° SE visible
23 Aug ? 04:39:25 45° WNW 04:40:42 78° SW 04:45:34 10° SE visible
24 Aug ? 04:21:48 53° SSE 04:21:48 53° SSE 04:25:38 10° SE visible
25 Aug ? 04:04:03 21° SE 04:04:03 21° SE 04:05:42 10° SE visible
